TimeAEST,TemperatureF,Dew PointF,Humidity,Sea Level PressureIn,VisibilityMPH,Wind Direction,Wind SpeedMPH,Gust SpeedMPH,PrecipitationIn,Events,Conditions,WindDirDegrees,DateUTC
12:00 AM,71,63,70,29.94,,SSE,10.4,,,,,160,2013-10-06 14:00:00
12:00 AM,71.6,62.6,73,29.92,6.2,SSE,10.4,-,N/A,,Partly Cloudy,160,2013-10-06 14:00:00
12:30 AM,69.8,62.6,78,29.92,6.2,SSE,4.6,-,N/A,,Partly Cloudy,150,2013-10-06 14:30:00
1:00 AM,68,64,84,29.93,,West,3.5,,,,,270,2013-10-06 15:00:00
1:00 AM,68.0,64.4,88,29.92,6.2,West,3.5,-,N/A,,Partly Cloudy,270,2013-10-06 15:00:00
1:30 AM,66.2,64.4,94,29.92,6.2,Calm,Calm,-,N/A,,Partly Cloudy,0,2013-10-06 15:30:00
2:00 AM,69.8,62.6,78,29.89,6.2,SE,8.1,-,N/A,,Partly Cloudy,130,2013-10-06 16:00:00
2:30 AM,68.0,62.6,83,29.89,6.2,SE,9.2,-,N/A,,Partly Cloudy,140,2013-10-06 16:30:00
3:00 AM,69,62,72,29.89,,SSE,11.5,,,,,150,2013-10-06 17:00:00
3:00 AM,68.0,62.6,83,29.89,6.2,SSE,11.5,-,N/A,,Partly Cloudy,150,2013-10-06 17:00:00
3:30 AM,68.0,62.6,83,29.89,6.2,SSE,11.5,-,N/A,,Partly Cloudy,160,2013-10-06 17:30:00
4:00 AM,69,62,72,29.89,,SSE,10.4,,,,,150,2013-10-06 18:00:00
4:00 AM,68.0,62.6,83,29.89,6.2,SSE,10.4,-,N/A,,Partly Cloudy,150,2013-10-06 18:00:00
4:30 AM,68.0,62.6,83,29.89,6.2,South,3.5,-,N/A,,Partly Cloudy,180,2013-10-06 18:30:00
5:00 AM,66.2,62.6,88,29.89,6.2,Calm,Calm,-,N/A,,Partly Cloudy,0,2013-10-06 19:00:00
5:30 AM,68.0,62.6,83,29.89,6.2,South,5.8,-,N/A,,Partly Cloudy,170,2013-10-06 19:30:00
6:00 AM,67,62,78,29.90,19,SE,11.5,,,,Partly Cloudy,140,2013-10-06 20:00:00
6:00 AM,68.0,62.6,83,29.89,6.2,SE,11.5,-,N/A,,Partly Cloudy,140,2013-10-06 20:00:00
6:30 AM,68.0,62.6,83,29.89,6.2,SE,10.4,-,N/A,,Partly Cloudy,140,2013-10-06 20:30:00
7:00 AM,70,62,69,29.92,,SE,10.4,,,,,130,2013-10-06 21:00:00
7:00 AM,69.8,62.6,78,29.92,6.2,SE,10.4,-,N/A,,Partly Cloudy,130,2013-10-06 21:00:00
7:30 AM,73.4,62.6,69,29.92,6.2,SE,11.5,-,N/A,,Partly Cloudy,140,2013-10-06 21:30:00
8:00 AM,77.0,62.6,61,29.92,6.2,South,10.4,-,N/A,,Partly Cloudy,170,2013-10-06 22:00:00
8:30 AM,77.0,60.8,57,29.92,6.2,South,10.4,-,N/A,,Partly Cloudy,170,2013-10-06 22:30:00
9:00 AM,78,62,48,29.94,19,SSE,9.2,,,,Partly Cloudy,160,2013-10-06 23:00:00
9:00 AM,78.8,62.6,57,29.92,6.2,SSE,9.2,-,N/A,,Partly Cloudy,160,2013-10-06 23:00:00
9:30 AM,80.6,62.6,54,29.92,6.2,SE,8.1,-,N/A,,Partly Cloudy,130,2013-10-06 23:30:00
10:00 AM,81,62,43,29.94,,ESE,9.2,,,,,110,2013-10-07 00:00:00
10:00 AM,80.6,62.6,54,29.92,6.2,ESE,9.2,-,N/A,,Partly Cloudy,110,2013-10-07 00:00:00
10:30 AM,82.4,62.6,51,29.92,6.2,ENE,8.1,-,N/A,,Partly Cloudy,70,2013-10-07 00:30:00
11:00 AM,84.2,62.6,48,29.89,6.2,NE,15.0,-,N/A,,Partly Cloudy,50,2013-10-07 01:00:00
11:30 AM,82.4,64.4,54,29.89,6.2,ENE,15.0,-,N/A,,Partly Cloudy,60,2013-10-07 01:30:00
12:00 PM,82,63,43,29.90,19,ENE,15.0,,,,Partly Cloudy,60,2013-10-07 02:00:00
12:00 PM,82.4,62.6,51,29.89,6.2,ENE,15.0,-,N/A,,Partly Cloudy,60,2013-10-07 02:00:00
12:30 PM,82.4,64.4,54,29.89,6.2,NE,13.8,-,N/A,,Partly Cloudy,50,2013-10-07 02:30:00
1:00 PM,82,64,45,29.88,,NE,12.7,,,,,40,2013-10-07 03:00:00
1:00 PM,82.4,64.4,54,29.86,6.2,NE,12.7,-,N/A,,Partly Cloudy,40,2013-10-07 03:00:00
1:30 PM,82.4,64.4,54,29.86,6.2,NNE,12.7,-,N/A,,Scattered Clouds,30,2013-10-07 03:30:00
2:00 PM,80.6,62.6,54,29.86,6.2,NE,12.7,-,N/A,,Scattered Clouds,50,2013-10-07 04:00:00
2:30 PM,82.4,64.4,54,29.83,6.2,NNE,10.4,-,N/A,,Partly Cloudy,30,2013-10-07 04:30:00
3:00 PM,82,65,46,29.84,19,NNE,10.4,,,,Partly Cloudy,20,2013-10-07 05:00:00
3:00 PM,82.4,64.4,54,29.83,6.2,NNE,10.4,-,N/A,,Partly Cloudy,20,2013-10-07 05:00:00
3:30 PM,78.8,64.4,61,29.83,6.2,NNE,10.4,-,N/A,,Mostly Cloudy,30,2013-10-07 05:30:00
4:00 PM,78,64,54,29.84,,NE,9.2,,,,,50,2013-10-07 06:00:00
4:00 PM,78.8,64.4,61,29.83,6.2,NE,9.2,-,N/A,,Partly Cloudy,50,2013-10-07 06:00:00
4:30 PM,78.8,64.4,61,29.83,6.2,NNE,9.2,-,N/A,,Partly Cloudy,30,2013-10-07 06:30:00
5:00 PM,77.0,64.4,65,29.83,6.2,NNE,9.2,-,N/A,,Partly Cloudy,30,2013-10-07 07:00:00
6:00 PM,76,65,61,29.86,,NE,8.1,,,,,50,2013-10-07 08:00:00
6:00 PM,77.0,64.4,65,29.86,6.2,NE,8.1,-,N/A,,Partly Cloudy,50,2013-10-07 08:00:00
6:30 PM,77.0,66.2,69,29.86,6.2,ENE,8.1,-,N/A,,Partly Cloudy,70,2013-10-07 08:30:00
7:00 PM,75,65,65,29.88,,East,8.1,,,,,80,2013-10-07 09:00:00
7:00 PM,75.2,66.2,73,29.86,6.2,East,8.1,-,N/A,,Partly Cloudy,80,2013-10-07 09:00:00
7:30 PM,73.4,66.2,78,29.86,6.2,SSE,5.8,-,N/A,,Partly Cloudy,160,2013-10-07 09:30:00
8:00 PM,73.4,64.4,73,29.89,6.2,SSW,4.6,-,N/A,,Partly Cloudy,200,2013-10-07 10:00:00
8:30 PM,73.4,64.4,73,29.89,6.2,South,4.6,-,N/A,,Partly Cloudy,180,2013-10-07 10:30:00
9:00 PM,73,65,68,29.91,,South,4.6,,,,,170,2013-10-07 11:00:00
9:00 PM,73.4,64.4,73,29.89,6.2,South,4.6,-,N/A,,Partly Cloudy,170,2013-10-07 11:00:00
9:30 PM,71.6,64.4,78,29.89,6.2,South,4.6,-,N/A,,Partly Cloudy,170,2013-10-07 11:30:00
10:00 PM,70,65,81,29.92,,Calm,Calm,,,,,,2013-10-07 12:00:00
10:00 PM,69.8,66.2,88,29.89,6.2,Calm,Calm,-,N/A,,Partly Cloudy,0,2013-10-07 12:00:00
10:30 PM,68.0,64.4,88,29.89,6.2,West,3.5,-,N/A,,Partly Cloudy,270,2013-10-07 12:30:00
11:00 PM,68.0,64.4,88,29.89,6.2,WNW,2.3,-,N/A,,Partly Cloudy,300,2013-10-07 13:00:00
11:30 PM,68.0,64.4,88,29.89,6.2,WNW,3.5,-,N/A,,Partly Cloudy,290,2013-10-07 13:30:00